Location: Champignolles
(47.0543°N, 4.5663°E)
Time: 15:44:33
(UTC+00:00)

Cosmos 1980 - Pass Details

Date: 30 November 2020
Orbit: 841 x 846 km, 71.0° (Epoch: 27 January)

Event Time Altitude Azimuth Distance (km) Brightness Sun altitude
Rises 16:31:15 0° 218° (SW) 3,394 8.1 -6.3°
Reaches altitude 10° 16:33:44 10° 222° (SW) 2,463 7.4 -6.7°
Maximum altitude 16:39:19 58° 301° (WNW) 980 4.3 -7.5°
Drops below altitude 10° 16:44:55 10° 21° (NNE) 2,477 5.7 -8.4°
Enters shadow 16:47:06 - 25° (NNE) 3,293 6.3 -8.8°
